Torna al catalogo

GEESAT 6-10

AttivoScienzaLEO
NORAD 65722·PAYLOAD·🇨🇳 China

Lanciato Sep 24, 2025 da Yellow Sea Launch Area

Loading…

Prossimi Passaggi (prossime 24 ore)

TLE

AggiornatoSource: Space-Track

Epoca: Sep 13, 2026, 17:00 UTC

1 65722U 25214L   26256.70862153  .00001014  00000-0  14904-3 0  9996
2 65722  49.9894 258.5248 0011568 216.9291 143.0852 14.83569304 52645

Traccia GEESAT 6-10 in tempo reale con AllMySat

Download on the App Store